N5RPG Weather Reports


time (UTC)temp
C
wind
direction
speed
KPH
gust
KPH
rain 1hr
cm
rain 24hr
cm
rain mn
cm
humidity
%
barometer
mb
20260506181755 18 56 3.2 6.4 0.00 0.00 0.00 84 1012.7
20260506181253 19 343 3.2 9.7 0.00 0.00 0.00 83 1012.8
20260506180749 19 16 3.2 6.4 0.00 0.00 0.00 83 1013.0
20260506180245 18 37 6.4 9.7 0.00 0.00 0.00 83 1013.2
20260506175742 18 236 0.0 8.0 0.00 0.00 0.00 82 1013.6
20260506175239 18 41 6.4 8.0 0.00 0.00 0.00 83 1013.7
20260506174737 18 87 6.4 11.3 0.00 0.00 0.00 81 1014.1
20260506174233 18 238 4.8 9.7 0.00 0.00 0.00 81 1014.3
20260506173731 18 322 1.6 6.4 0.00 0.00 0.00 82 1014.8
20260506173227 18 92 6.4 6.4 0.00 0.00 0.00 81 1014.4
20260506172724 18 8 3.2 6.4 0.00 0.00 0.00 82 1014.6
20260506172221 18 312 4.8 6.4 0.00 0.00 0.00 82 1014.6
20260506171718 18 298 3.2 6.4 0.00 0.00 0.00 84 1014.9
20260506171216 17 289 1.6 9.7 0.00 0.00 0.00 83 1015.2
20260506170713 17 284 3.2 6.4 0.00 0.00 0.00 84 1015.2
20260506170210 17 290 3.2 6.4 0.00 0.00 0.00 84 1015.2
20260506165708 17 266 4.8 9.7 0.00 0.00 0.00 83 1015.3
20260506165205 18 243 3.2 16.1 0.00 0.00 0.00 83 1015.3
20260506164702 18 329 3.2 4.8 0.00 0.00 0.00 84 1015.1
20260506164159 17 355 1.6 4.8 0.00 0.00 0.00 84 1015.2
20260506163655 17 74 6.4 9.7 0.00 0.00 0.00 84 1014.9
20260506163150 18 306 3.2 4.8 0.00 0.00 0.00 83 1014.8
20260506162647 18 78 3.2 8.0 0.00 0.00 0.00 82 1014.6
20260506162144 18 279 3.2 9.7 0.00 0.00 0.00 82 1014.6
20260506161641 18 186 4.8 9.7 0.00 0.00 0.00 82 1014.3
20260506161138 18 12 3.2 6.4 0.00 0.00 0.00 83 1014.1
20260506160636 18 1 4.8 9.7 0.00 0.00 0.00 82 1014.1
20260506160132 18 356 4.8 4.8 0.00 0.00 0.00 83 1013.8
20260506155631 18 256 1.6 4.8 0.00 0.00 0.00 82 1013.7
20260506155128 18 330 1.6 6.4 0.00 0.00 0.00 83 1013.7
20260506153230 18 349 6.4 8.0 0.00 0.00 0.00 82 1013.6
20260506152727 18 269 0.0 6.4 0.00 0.00 0.00 82 1013.8
20260506152224 19 61 4.8 9.7 0.00 0.00 0.00 82 1013.6
20260506151723 19 212 4.8 6.4 0.00 0.00 0.00 81 1013.8
20260506151219 19 348 0.0 6.4 0.00 0.00 0.00 82 1013.2
20260506150716 19 46 4.8 8.0 0.00 0.00 0.00 82 1013.1
20260506150213 18 70 3.2 8.0 0.00 0.00 0.00 83 1013.0
20260506145710 18 343 0.0 6.4 0.00 0.00 0.00 83 1013.0
20260506145206 18 293 3.2 8.0 0.00 0.00 0.00 84 1012.9
20260506144704 18 308 0.0 6.4 0.00 0.00 0.00 84 1012.8
20260506144201 18 266 3.2 3.2 0.00 0.00 0.00 85 1012.7
20260506143658 18 50 6.4 8.0 0.00 0.00 0.00 87 1012.9
20260506143156 18 359 6.4 6.4 0.00 0.00 0.00 87 1013.0
20260506142654 18 265 3.2 8.0 0.00 0.00 0.00 86 1012.9
20260506142152 18 49 4.8 4.8 0.00 0.00 0.00 87 1013.0
20260506141649 18 167 0.0 3.2 0.00 0.00 0.00 87 1012.9
20260506141148 18 308 1.6 6.4 0.00 0.00 0.00 87 1012.6
20260506140644 18 243 0.0 8.0 0.00 0.00 0.00 87 1013.0
20260506140142 18 42 3.2 11.3 0.00 0.00 0.00 87 1012.8
20260506135639 18 17 4.8 9.7 0.00 0.00 0.00 87 1012.5
20260506135135 18 251 4.8 11.3 0.00 0.00 0.00 86 1012.7
20260506134632 18 32 3.2 8.0 0.00 0.00 0.00 87 1012.5
20260506134127 18 29 3.2 6.4 0.00 0.00 0.00 87 1012.6
20260506133625 18 85 0.0 9.7 0.00 0.00 0.00 86 1012.5
20260506133122 18 278 3.2 6.4 0.00 0.00 0.00 87 1012.4
20260506132619 18 257 3.2 6.4 0.00 0.00 0.00 86 1012.2
20260506132116 18 345 8.0 8.0 0.00 0.00 0.00 86 1012.2
20260506131613 18 135 0.0 9.7 0.00 0.00 0.00 86 1012.2
20260506131109 19 146 1.6 4.8 0.00 0.00 0.00 88 1012.0
20260506130607 19 359 3.2 4.8 0.00 0.00 0.00 88 1011.8
20260506130104 19 321 3.2 3.2 0.00 0.00 0.00 88 1011.7
20260506125602 19 238 1.6 6.4 0.00 0.00 0.00 88 1011.7
20260506125100 19 213 3.2 6.4 0.00 0.00 0.00 88 1011.8
20260506124557 19 58 1.6 8.0 0.00 0.00 0.00 89 1011.5
20260506124055 20 300 3.2 9.7 0.00 0.00 0.00 88 1011.7
20260506123552 20 219 6.4 6.4 0.00 0.00 0.00 88 1011.4
20260506123051 21 219 3.2 4.8 0.00 0.00 0.00 87 1011.5
20260506122547 21 83 0.0 8.0 0.00 0.00 0.00 87 1011.4
20260506122045 22 71 3.2 6.4 0.00 0.00 0.00 87 1011.3
20260506121542 22 253 6.4 6.4 0.00 0.00 0.00 87 1011.0
20260506121038 22 7 3.2 6.4 0.00 0.00 0.00 86 1011.0
20260506120536 23 246 0.0 4.8 0.00 0.00 0.00 88 1011.0
20260506120034 23 143 0.0 3.2 0.00 0.00 0.00 90 1010.9
20260506115532 23 218 0.0 3.2 0.00 0.00 0.00 90 1010.7
20260506115030 23 242 0.0 1.6 0.00 0.00 0.00 90 1010.7
20260506114527 23 226 1.6 3.2 0.00 0.00 0.00 90 1010.5
20260506114025 23 227 3.2 4.8 0.00 0.00 0.00 90 1010.4
20260506113523 23 232 3.2 6.4 0.00 0.00 0.00 90 1010.6
20260506113020 23 150 1.6 3.2 0.00 0.00 0.00 89 1010.5
20260506112516 23 189 0.0 3.2 0.00 0.00 0.00 89 1010.4
20260506112014 23 202 3.2 3.2 0.00 0.00 0.00 89 1010.2
20260506111512 23 285 3.2 3.2 0.00 0.00 0.00 89 1010.1
20260506111008 23 182 1.6 4.8 0.00 0.00 0.00 89 1010.1
20260506110506 23 199 3.2 4.8 0.00 0.00 0.00 89 1010.0
20260506110003 23 265 3.2 4.8 0.00 0.00 0.00 89 1010.0
20260506105459 23 191 3.2 3.2 0.00 0.00 0.00 89 1009.9
20260506104956 23 145 0.0 8.0 0.00 0.00 0.00 89 1009.7
20260506104454 23 217 0.0 6.4 0.00 0.00 0.00 89 1009.8
20260506103952 23 220 0.0 6.4 0.00 0.00 0.00 89 1009.7
20260506103449 23 240 3.2 3.2 0.00 0.00 0.00 89 1009.8
20260506102946 23 201 3.2 3.2 0.00 0.00 0.00 89 1009.7
20260506102444 23 194 3.2 4.8 0.00 0.00 0.00 89 1009.6
20260506101941 23 257 1.6 3.2 0.00 0.00 0.00 89 1009.7
20260506101437 23 196 3.2 6.4 0.00 0.00 0.00 89 1009.3
20260506100935 23 202 3.2 4.8 0.00 0.00 0.00 89 1009.7
20260506100433 23 286 1.6 8.0 0.00 0.00 0.00 89 1009.6
20260506095931 23 222 11.3 12.9 0.00 0.00 0.00 89 1009.6
20260506095429 23 214 3.2 3.2 0.00 0.00 0.00 89 1009.4
20260506094925 23 252 0.0 4.8 0.00 0.00 0.00 89 1009.2
20260506094424 23 320 4.8 6.4 0.00 0.00 0.00 89 1009.5
20260506093921 23 337 0.0 4.8 0.00 0.00 0.00 90 1009.3
20260506093419 23 132 1.6 6.4 0.00 0.00 0.00 90 1009.4
20260506092916 23 222 0.0 3.2 0.00 0.00 0.00 90 1009.3
20260506092414 23 219 3.2 6.4 0.00 0.00 0.00 90 1009.1
20260506091910 23 262 1.6 4.8 0.00 0.00 0.00 90 1009.1
20260506091409 23 222 1.6 6.4 0.00 0.00 0.00 90 1009.2
20260506090905 23 261 4.8 6.4 0.00 0.00 0.00 90 1009.3
20260506090403 23 235 3.2 8.0 0.00 0.00 0.00 90 1009.1
20260506085859 23 232 4.8 6.4 0.00 0.00 0.00 90 1009.0
20260506085356 23 206 4.8 4.8 0.00 0.00 0.00 90 1009.0
20260506084852 23 141 3.2 8.0 0.00 0.00 0.00 90 1009.1
20260506084349 23 199 3.2 6.4 0.00 0.00 0.00 90 1009.3
20260506083846 23 218 0.0 4.8 0.00 0.00 0.00 90 1009.2
20260506083344 23 257 3.2 9.7 0.00 0.00 0.00 90 1009.0
20260506082841 23 46 3.2 8.0 0.00 0.00 0.00 90 1009.2
20260506082337 23 258 3.2 9.7 0.00 0.00 0.00 90 1008.8
20260506081833 23 168 0.0 9.7 0.00 0.00 0.00 90 1009.0
20260506081332 23 105 3.2 6.4 0.00 0.00 0.00 90 1009.0
20260506080829 23 202 6.4 6.4 0.00 0.00 0.00 90 1008.8
20260506080325 23 215 3.2 6.4 0.00 0.00 0.00 90 1009.1
20260506073309 23 215 3.2 6.4 0.00 0.00 0.00 90 1009.1
20260506072806 23 230 1.6 4.8 0.00 0.00 0.00 90 1009.2
20260506072305 23 176 3.2 9.7 0.00 0.00 0.00 90 1008.9
20260506071801 23 149 6.4 6.4 0.00 0.00 0.00 90 1008.7
20260506071259 23 198 3.2 4.8 0.00 0.00 0.00 90 1009.3
20260506070756 23 222 1.6 6.4 0.00 0.00 0.00 90 1008.8
20260506070253 23 154 3.2 3.2 0.00 0.00 0.00 90 1009.1
20260506062230 24 145 4.8 8.0 0.00 0.00 0.00 88 1010.2
20260506061726 24 166 3.2 3.2 0.00 0.00 0.00 88 1010.0
20260506061223 24 250 3.2 4.8 0.00 0.00 0.00 88 1009.9
20260506060722 24 245 1.6 4.8 0.00 0.00 0.00 88 1009.9
20260506060218 23 202 4.8 4.8 0.00 0.00 0.00 89 1009.7
20260506051151 23 40 1.6 4.8 0.00 0.00 0.00 90 1009.7
20260506050649 23 183 0.0 12.9 0.00 0.00 0.00 90 1009.3
20260506050146 23 176 1.6 6.4 0.00 0.00 0.00 90 1009.2
20260506044637 23 220 1.6 4.8 0.00 0.00 0.00 89 1008.9
20260506044133 23 219 0.0 4.8 0.00 0.00 0.00 89 1008.9
20260506043630 23 213 4.8 4.8 0.00 0.00 0.00 89 1008.9
20260506043129 23 146 3.2 9.7 0.00 0.00 0.00 89 1008.6
20260506042627 23 241 6.4 11.3 0.00 0.00 0.00 89 1008.7
20260506042125 23 114 3.2 4.8 0.00 0.00 0.00 88 1008.4
20260506041624 24 272 3.2 6.4 0.00 0.00 0.00 88 1008.4
20260506041120 24 121 4.8 4.8 0.00 0.00 0.00 88 1008.3
20260506040618 24 87 3.2 6.4 0.00 0.00 0.00 88 1008.2
20260506040114 24 161 4.8 6.4 0.00 0.00 0.00 87 1008.3
20260506035611 24 156 4.8 12.9 0.00 0.00 0.00 87 1008.3
20260506035107 24 224 8.0 8.0 0.00 0.00 0.00 87 1008.4
20260506034605 24 133 0.0 3.2 0.00 0.00 0.00 87 1008.2
20260506034102 24 241 3.2 8.0 0.00 0.00 0.00 87 1008.5
20260506033559 24 128 6.4 6.4 0.00 0.00 0.00 86 1008.2
20260506033056 25 92 1.6 4.8 0.00 0.00 0.00 86 1008.3
20260506032553 25 141 1.6 11.3 0.00 0.00 0.00 86 1008.3
20260506032050 25 183 1.6 6.4 0.00 0.00 0.00 86 1008.3
20260506031548 25 174 0.0 6.4 0.00 0.00 0.00 85 1008.5
20260506031044 25 134 3.2 3.2 0.00 0.00 0.00 85 1008.3
20260506030542 25 130 4.8 6.4 0.00 0.00 0.00 84 1007.9
20260506030039 25 147 4.8 6.4 0.00 0.00 0.00 84 1007.7
20260506025536 25 180 1.6 8.0 0.00 0.00 0.00 84 1008.1
20260506025032 25 260 3.2 3.2 0.00 0.00 0.00 83 1008.1
20260506024530 25 165 3.2 9.7 0.00 0.00 0.00 83 1008.2
20260506024026 25 194 0.0 3.2 0.00 0.00 0.00 83 1008.4
20260506023522 25 210 0.0 3.2 0.00 0.00 0.00 83 1008.0
20260506023020 25 171 0.0 3.2 0.00 0.00 0.00 82 1008.2
20260506022517 25 255 0.0 3.2 0.00 0.00 0.00 82 1008.0
20260506022015 25 119 0.0 3.2 0.00 0.00 0.00 82 1008.0
20260506021512 25 180 1.6 3.2 0.00 0.00 0.00 82 1008.0
20260506021009 25 180 1.6 4.8 0.00 0.00 0.00 82 1007.9
20260506020507 25 142 1.6 3.2 0.00 0.00 0.00 82 1007.9
20260506020004 25 277 0.0 3.2 0.00 0.00 0.00 82 1007.6
20260506015501 25 242 0.0 3.2 0.00 0.00 0.00 82 1007.4
20260506014957 25 150 4.8 4.8 0.00 0.00 0.00 81 1007.5
20260506014455 25 176 3.2 3.2 0.00 0.00 0.00 81 1007.5
20260506013951 25 174 1.6 4.8 0.00 0.00 0.00 80 1007.2
20260506013449 25 107 0.0 1.6 0.00 0.00 0.00 79 1007.3
20260506012945 26 126 0.0 0.0 0.00 0.00 0.00 79 1007.3
20260506012441 26 149 1.6 3.2 0.00 0.00 0.00 78 1007.3
20260506011938 26 83 3.2 3.2 0.00 0.00 0.00 78 1007.4
20260506011436 26 89 0.0 3.2 0.00 0.00 0.00 77 1007.4
20260506010932 26 210 1.6 1.6 0.00 0.00 0.00 77 1007.3
20260506010432 26 241 1.6 1.6 0.00 0.00 0.00 77 1007.0
20260506005927 26 142 0.0 4.8 0.00 0.00 0.00 76 1006.8
20260506005425 26 232 4.8 4.8 0.00 0.00 0.00 76 1006.7
20260506004920 26 154 1.6 3.2 0.00 0.00 0.00 76 1006.7
20260506004419 27 185 4.8 9.7 0.00 0.00 0.00 75 1006.7
20260506003914 27 240 0.0 1.6 0.00 0.00 0.00 75 1006.6
20260506003411 27 237 0.0 8.0 0.00 0.00 0.00 74 1006.4
20260506002908 27 168 1.6 4.8 0.00 0.00 0.00 74 1006.6
20260506002403 27 184 1.6 6.4 0.00 0.00 0.00 73 1006.4
20260506001859 27 168 0.0 3.2 0.00 0.00 0.00 73 1006.4
20260506001356 27 190 3.2 6.4 0.00 0.00 0.00 72 1006.6
20260506000853 28 247 3.2 6.4 0.00 0.00 0.00 71 1006.5
20260506000353 28 145 3.2 4.8 0.00 0.00 0.00 70 1006.7
20260505235847 28 231 1.6 8.0 0.00 0.00 0.00 69 1006.5
20260505235345 28 195 0.0 1.6 0.00 0.00 0.00 69 1006.8
20260505234842 28 209 0.0 4.8 0.00 0.00 0.00 68 1006.7
20260505234340 28 185 1.6 6.4 0.00 0.00 0.00 68 1006.8
20260505233836 28 210 4.8 6.4 0.00 0.00 0.00 68 1006.5
20260505233334 28 126 6.4 12.9 0.00 0.00 0.00 67 1006.6
20260505232831 29 208 3.2 6.4 0.00 0.00 0.00 66 1006.6
20260505232329 29 145 3.2 8.0 0.00 0.00 0.00 66 1006.4
20260505231825 30 169 6.4 11.3 0.00 0.00 0.00 65 1006.3
20260505231324 29 278 0.0 8.0 0.00 0.00 0.00 66 1006.5
20260505230822 30 260 1.6 6.4 0.00 0.00 0.00 65 1006.3
20260505230318 29 276 3.2 4.8 0.00 0.00 0.00 66 1006.3
20260505225815 29 179 3.2 8.0 0.00 0.00 0.00 66 1006.3
20260505225312 30 129 9.7 9.7 0.00 0.00 0.00 63 1006.2
20260505224807 30 239 4.8 6.4 0.00 0.00 0.00 63 1006.2
20260505224305 30 113 3.2 12.9 0.00 0.00 0.00 63 1006.1
20260505223802 30 144 6.4 6.4 0.00 0.00 0.00 62 1006.1
20260505223259 30 304 0.0 6.4 0.00 0.00 0.00 63 1006.3
20260505222755 30 214 3.2 6.4 0.00 0.00 0.00 62 1006.2
20260505222251 30 207 4.8 11.3 0.00 0.00 0.00 62 1006.3
20260505221748 30 264 9.7 12.9 0.00 0.00 0.00 61 1006.5
20260505221245 30 210 6.4 11.3 0.00 0.00 0.00 62 1006.4
20260505220741 30 217 9.7 14.5 0.00 0.00 0.00 62 1006.3
20260505220239 30 207 6.4 20.9 0.00 0.00 0.00 62 1006.5
20260505215737 31 224 8.0 9.7 0.00 0.00 0.00 62 1006.5
20260505215235 30 120 6.4 8.0 0.00 0.00 0.00 62 1006.4
20260505214732 30 217 6.4 8.0 0.00 0.00 0.00 63 1006.5
20260505214229 30 122 8.0 16.1 0.00 0.00 0.00 63 1006.6
20260505213727 30 212 4.8 11.3 0.00 0.00 0.00 62 1006.7
20260505213224 30 211 4.8 11.3 0.00 0.00 0.00 63 1006.6
20260505212720 30 272 4.8 8.0 0.00 0.00 0.00 63 1006.6
20260505212217 30 223 6.4 9.7 0.00 0.00 0.00 64 1006.7
20260505211714 29 216 3.2 8.0 0.00 0.00 0.00 65 1006.7
20260505211212 29 213 8.0 20.9 0.00 0.00 0.00 65 1006.8
20260505210708 28 224 3.2 9.7 0.00 0.00 0.00 67 1006.6
20260505210205 28 221 11.3 19.3 0.00 0.00 0.00 67 1006.8
20260505205702 28 150 3.2 9.7 0.00 0.00 0.00 69 1006.7
20260505205200 28 201 6.4 9.7 0.00 0.00 0.00 67 1007.0
20260505204656 28 210 1.6 16.1 0.00 0.00 0.00 68 1007.0
20260505204155 28 211 1.6 11.3 0.00 0.00 0.00 68 1007.1
20260505203651 28 188 1.6 6.4 0.00 0.00 0.00 69 1007.3
20260505203148 28 156 6.4 12.9 0.00 0.00 0.00 69 1007.1
20260505202644 28 259 3.2 4.8 0.00 0.00 0.00 68 1007.2
20260505202140 28 264 3.2 12.9 0.00 0.00 0.00 68 1007.2
20260505201637 28 179 3.2 8.0 0.00 0.00 0.00 67 1007.3
20260505201135 28 252 6.4 11.3 0.00 0.00 0.00 68 1007.1
20260505200633 28 204 6.4 6.4 0.00 0.00 0.00 69 1007.3
20260505200129 28 164 3.2 8.0 0.00 0.00 0.00 70 1007.3
20260505195625 28 213 6.4 6.4 0.00 0.00 0.00 67 1007.4
20260505195123 28 215 9.7 12.9 0.00 0.00 0.00 67 1007.3
20260505194620 28 209 6.4 9.7 0.00 0.00 0.00 68 1007.2
20260505194116 28 154 8.0 12.9 0.00 0.00 0.00 67 1007.3
20260505193613 29 133 3.2 9.7 0.00 0.00 0.00 65 1007.2
20260505193110 28 208 4.8 8.0 0.00 0.00 0.00 67 1007.5
20260505192609 28 103 6.4 8.0 0.00 0.00 0.00 68 1007.7
20260505192106 28 229 9.7 14.5 0.00 0.00 0.00 68 1007.6
20260505191604 27 211 12.9 17.7 0.00 0.00 0.00 69 1007.8
20260505191102 28 166 6.4 12.9 0.00 0.00 0.00 67 1007.9
20260505190602 27 209 8.0 19.3 0.00 0.00 0.00 69 1007.9
20260505190058 27 160 8.0 17.7 0.00 0.00 0.00 70 1007.9
20260505185555 27 293 0.0 9.7 0.00 0.00 0.00 70 1007.9
20260505185051 27 260 11.3 25.7 0.00 0.00 0.00 68 1007.8
20260505184548 27 229 6.4 14.5 0.00 0.00 0.00 69 1007.9
20260505184045 27 213 6.4 6.4 0.00 0.00 0.00 71 1008.1
20260505183541 27 207 8.0 11.3 0.00 0.00 0.00 70 1008.2
20260505183039 27 199 11.3 19.3 0.00 0.00 0.00 69 1007.9
20260505182535 27 264 3.2 11.3 0.00 0.00 0.00 69 1007.9